| time (UTC) | temp C | wind direction | speed KPH | gust KPH | rain 1hr cm | rain 24hr cm | rain mn cm | humidity % | barometer mb |
| 20260509013003 | 12 | 0 | 0.0 | 0.0 | 0.05 | 0.15 | 0.08 | 96 | 1031.8 |
| 20260509012403 | 12 | 0 | 0.0 | 1.6 | 0.03 | 0.13 | 0.05 | 96 | 1031.8 |
| 20260509011503 | 12 | 0 | 0.0 | 3.2 | 0.03 | 0.13 | 0.05 | 96 | 1031.7 |
| 20260509010603 | 12 | 0 | 0.0 | 4.8 | 0.03 | 0.13 | 0.05 | 96 | 1031.8 |
| 20260509005703 | 12 | 0 | 0.0 | 4.8 | 0.03 | 0.13 | 0.05 | 96 | 1031.8 |
| 20260509004803 | 12 | 0 | 0.0 | 4.8 | 0.00 | 0.10 | 0.05 | 97 | 1031.7 |
| 20260509003903 | 11 | 0 | 0.0 | 3.2 | 0.00 | 0.10 | 0.05 | 97 | 1031.8 |
| 20260509003003 | 11 | 0 | 0.0 | 4.8 | 0.00 | 0.10 | 0.05 | 97 | 1031.8 |
| 20260509002424 | 11 | 0 | 0.0 | 4.8 | 0.00 | 0.10 | 0.05 | 97 | 1031.9 |
| 20260509001503 | 11 | 0 | 0.0 | 3.2 | 0.00 | 0.10 | 0.05 | 97 | 1031.9 |
| 20260509000603 | 11 | 0 | 0.0 | 3.2 | 0.00 | 0.10 | 0.05 | 97 | 1032.0 |
| 20260508235703 | 11 | 0 | 0.0 | 6.4 | 0.00 | 0.10 | 0.05 | 97 | 1032.0 |
| 20260508234803 | 11 | 0 | 0.0 | 6.4 | 0.00 | 0.10 | 0.05 | 97 | 1032.0 |
| 20260508233903 | 11 | 0 | 0.0 | 1.6 | 0.00 | 0.10 | 0.05 | 97 | 1032.0 |
| 20260508233003 | 11 | 0 | 0.0 | 8.0 | 0.00 | 0.10 | 0.05 | 97 | 1032.0 |
| 20260508232403 | 11 | 0 | 0.0 | 1.6 | 0.00 | 0.10 | 0.05 | 97 | 1032.1 |
| 20260508231503 | 11 | 0 | 0.0 | 1.6 | 0.00 | 0.10 | 0.05 | 97 | 1031.9 |
| 20260508230603 | 11 | 0 | 0.0 | 1.6 | 0.00 | 0.13 | 0.05 | 97 | 1031.9 |
| 20260508225703 | 11 | 0 | 0.0 | 0.0 | 0.03 | 0.13 | 0.05 | 97 | 1031.8 |
| 20260508224803 | 11 | 0 | 0.0 | 1.6 | 0.03 | 0.13 | 0.05 | 97 | 1031.8 |
| 20260508223903 | 11 | 0 | 0.0 | 0.0 | 0.03 | 0.13 | 0.05 | 97 | 1031.7 |
| 20260508223024 | 10 | 0 | 0.0 | 0.0 | 0.03 | 0.13 | 0.05 | 97 | 1031.6 |
| 20260508222403 | 10 | 0 | 0.0 | 0.0 | 0.03 | 0.13 | 0.05 | 97 | 1031.5 |
| 20260508221503 | 10 | 0 | 0.0 | 0.0 | 0.03 | 0.13 | 0.05 | 97 | 1031.6 |
| 20260508220603 | 10 | 0 | 0.0 | 0.0 | 0.03 | 0.13 | 0.05 | 97 | 1031.5 |
| 20260508215703 | 10 | 0 | 0.0 | 0.0 | 0.00 | 0.10 | 0.03 | 97 | 1031.5 |
| 20260508214803 | 10 | 0 | 0.0 | 1.6 | 0.00 | 0.10 | 0.03 | 97 | 1031.4 |
| 20260508213924 | 10 | 0 | 0.0 | 1.6 | 0.00 | 0.10 | 0.03 | 97 | 1031.4 |
| 20260508213003 | 10 | 0 | 0.0 | 0.0 | 0.00 | 0.10 | 0.03 | 97 | 1031.2 |
| 20260508212403 | 10 | 0 | 0.0 | 1.6 | 0.00 | 0.10 | 0.03 | 97 | 1031.1 |
| 20260508211503 | 10 | 0 | 0.0 | 3.2 | 0.00 | 0.10 | 0.03 | 97 | 1031.0 |
| 20260508210624 | 10 | 0 | 0.0 | 0.0 | 0.00 | 0.10 | 0.03 | 97 | 1031.0 |
| 20260508205703 | 10 | 0 | 0.0 | 0.0 | 0.00 | 0.10 | 0.03 | 97 | 1031.1 |
| 20260508204824 | 10 | 0 | 0.0 | 0.0 | 0.03 | 0.10 | 0.03 | 97 | 1031.0 |
| 20260508203904 | 10 | 0 | 0.0 | 0.0 | 0.03 | 0.10 | 0.03 | 97 | 1031.0 |
| 20260508203024 | 10 | 0 | 0.0 | 1.6 | 0.03 | 0.10 | 0.03 | 97 | 1030.9 |
| 20260508202403 | 10 | 0 | 0.0 | 0.0 | 0.03 | 0.10 | 0.03 | 97 | 1030.9 |
| 20260508201503 | 10 | 0 | 0.0 | 0.0 | 0.03 | 0.10 | 0.03 | 97 | 1030.9 |
| 20260508200624 | 10 | 0 | 0.0 | 0.0 | 0.03 | 0.10 | 0.03 | 97 | 1030.7 |
| 20260508195703 | 10 | 0 | 0.0 | 1.6 | 0.03 | 0.10 | 0.03 | 97 | 1030.6 |
| 20260508194803 | 10 | 0 | 0.0 | 0.0 | 0.00 | 0.08 | 0.00 | 97 | 1030.6 |
| 20260508193903 | 10 | 0 | 0.0 | 0.0 | 0.00 | 0.08 | 0.00 | 97 | 1030.5 |
| 20260508193003 | 10 | 0 | 0.0 | 0.0 | 0.00 | 0.08 | 0.00 | 97 | 1030.5 |
| 20260508192403 | 10 | 0 | 0.0 | 0.0 | 0.00 | 0.08 | 0.00 | 97 | 1030.4 |
| 20260508191503 | 10 | 0 | 0.0 | 3.2 | 0.00 | 0.08 | 0.00 | 97 | 1030.4 |
| 20260508190624 | 10 | 0 | 0.0 | 0.0 | 0.00 | 0.08 | 0.00 | 97 | 1030.4 |
| 20260508185703 | 10 | 0 | 0.0 | 0.0 | 0.00 | 0.08 | 0.00 | 97 | 1030.4 |
| 20260508184803 | 10 | 0 | 0.0 | 3.2 | 0.00 | 0.08 | 0.00 | 97 | 1030.3 |
| 20260508183924 | 10 | 0 | 0.0 | 0.0 | 0.00 | 0.08 | 0.00 | 97 | 1030.4 |
| 20260508183003 | 10 | 0 | 0.0 | 1.6 | 0.00 | 0.08 | 0.00 | 97 | 1030.4 |
| 20260508182403 | 10 | 0 | 0.0 | 0.0 | 0.00 | 0.08 | 0.00 | 97 | 1030.4 |
| 20260508181503 | 10 | 0 | 0.0 | 1.6 | 0.00 | 0.08 | 0.00 | 97 | 1030.5 |
| 20260508180603 | 10 | 0 | 0.0 | 3.2 | 0.00 | 0.08 | 0.00 | 97 | 1030.5 |
| 20260508175703 | 10 | 0 | 0.0 | 0.0 | 0.00 | 0.08 | 0.00 | 97 | 1030.5 |
| 20260508174803 | 10 | 0 | 0.0 | 1.6 | 0.00 | 0.08 | 0.00 | 97 | 1030.6 |
| 20260508173903 | 10 | 0 | 0.0 | 1.6 | 0.00 | 0.08 | 0.00 | 97 | 1030.6 |
| 20260508173003 | 10 | 0 | 0.0 | 3.2 | 0.00 | 0.08 | 0.00 | 97 | 1030.6 |
| 20260508172403 | 10 | 0 | 0.0 | 3.2 | 0.00 | 0.08 | 0.00 | 97 | 1030.7 |
| 20260508171503 | 10 | 0 | 0.0 | 1.6 | 0.00 | 0.08 | 0.00 | 97 | 1030.6 |
| 20260508170603 | 10 | 0 | 0.0 | 1.6 | 0.00 | 0.08 | 0.00 | 97 | 1030.6 |
| 20260508165703 | 10 | 0 | 0.0 | 1.6 | 0.00 | 0.08 | 0.00 | 97 | 1030.5 |
| 20260508164803 | 10 | 0 | 0.0 | 3.2 | 0.00 | 0.08 | 0.00 | 97 | 1030.6 |
| 20260508163903 | 10 | 0 | 0.0 | 0.0 | 0.00 | 0.08 | 0.00 | 97 | 1030.5 |
| 20260508163003 | 10 | 0 | 0.0 | 6.4 | 0.00 | 0.08 | 0.00 | 97 | 1030.5 |
| 20260508162403 | 10 | 0 | 0.0 | 3.2 | 0.00 | 0.08 | 0.00 | 97 | 1030.4 |
| 20260508161503 | 10 | 0 | 0.0 | 4.8 | 0.00 | 0.08 | 0.00 | 97 | 1030.5 |
| 20260508160624 | 10 | 0 | 0.0 | 4.8 | 0.00 | 0.08 | 0.00 | 97 | 1030.5 |
| 20260508155703 | 10 | 0 | 0.0 | 4.8 | 0.00 | 0.08 | 0.00 | 97 | 1030.6 |
| 20260508154803 | 10 | 0 | 0.0 | 3.2 | 0.00 | 0.08 | 0.00 | 97 | 1030.7 |
| 20260508153903 | 10 | 0 | 0.0 | 3.2 | 0.00 | 0.08 | 0.00 | 96 | 1030.6 |
| 20260508153003 | 10 | 0 | 0.0 | 1.6 | 0.00 | 0.08 | 0.00 | 96 | 1030.6 |
| 20260508152403 | 10 | 0 | 0.0 | 3.2 | 0.00 | 0.08 | 0.00 | 96 | 1030.7 |
| 20260508151503 | 10 | 0 | 0.0 | 1.6 | 0.00 | 0.08 | 0.00 | 96 | 1030.7 |
| 20260508150624 | 10 | 0 | 0.0 | 1.6 | 0.00 | 0.08 | 0.00 | 96 | 1030.7 |
| 20260508145703 | 10 | 0 | 0.0 | 4.8 | 0.00 | 0.08 | 0.00 | 96 | 1030.7 |
| 20260508144803 | 10 | 0 | 0.0 | 1.6 | 0.03 | 0.08 | 0.00 | 96 | 1030.7 |
| 20260508143903 | 10 | 0 | 0.0 | 6.4 | 0.03 | 0.08 | 0.00 | 96 | 1030.8 |
| 20260508143024 | 10 | 0 | 0.0 | 4.8 | 0.03 | 0.08 | 0.00 | 96 | 1030.9 |
| 20260508142403 | 10 | 0 | 0.0 | 4.8 | 0.03 | 0.08 | 0.08 | 96 | 1030.9 |
| 20260508141503 | 10 | 0 | 0.0 | 3.2 | 0.03 | 0.08 | 0.08 | 96 | 1030.9 |
| 20260508140603 | 10 | 0 | 0.0 | 4.8 | 0.03 | 0.08 | 0.08 | 96 | 1030.9 |
| 20260508135724 | 10 | 0 | 0.0 | 3.2 | 0.03 | 0.08 | 0.08 | 96 | 1030.9 |
| 20260508134803 | 10 | 0 | 0.0 | 3.2 | 0.00 | 0.05 | 0.05 | 96 | 1031.1 |
| 20260508133903 | 10 | 0 | 0.0 | 3.2 | 0.00 | 0.05 | 0.05 | 96 | 1031.1 |
| 20260508133003 | 10 | 0 | 0.0 | 3.2 | 0.00 | 0.05 | 0.05 | 96 | 1031.2 |
| 20260508132424 | 10 | 0 | 0.0 | 3.2 | 0.00 | 0.05 | 0.05 | 96 | 1031.2 |
| 20260508131503 | 10 | 0 | 0.0 | 1.6 | 0.00 | 0.05 | 0.05 | 96 | 1031.3 |
| 20260508130603 | 10 | 0 | 0.0 | 1.6 | 0.00 | 0.05 | 0.05 | 96 | 1031.3 |
| 20260508125703 | 10 | 0 | 0.0 | 1.6 | 0.00 | 0.05 | 0.05 | 96 | 1031.4 |
| 20260508124803 | 10 | 0 | 0.0 | 6.4 | 0.00 | 0.05 | 0.05 | 96 | 1031.4 |
| 20260508123903 | 10 | 0 | 0.0 | 4.8 | 0.00 | 0.05 | 0.05 | 95 | 1031.4 |
| 20260508123003 | 10 | 0 | 0.0 | 9.7 | 0.00 | 0.05 | 0.05 | 95 | 1031.5 |
| 20260508122403 | 10 | 0 | 0.0 | 9.7 | 0.00 | 0.05 | 0.05 | 95 | 1031.4 |
| 20260508121503 | 10 | 0 | 0.0 | 3.2 | 0.00 | 0.05 | 0.05 | 95 | 1031.4 |
| 20260508120603 | 10 | 0 | 0.0 | 3.2 | 0.00 | 0.05 | 0.05 | 95 | 1031.4 |
| 20260508115703 | 10 | 0 | 0.0 | 1.6 | 0.00 | 0.05 | 0.05 | 95 | 1031.4 |
| 20260508114803 | 10 | 0 | 0.0 | 1.6 | 0.00 | 0.05 | 0.05 | 95 | 1031.4 |
| 20260508113903 | 10 | 0 | 0.0 | 1.6 | 0.00 | 0.05 | 0.05 | 95 | 1031.3 |
| 20260508113004 | 10 | 0 | 0.0 | 1.6 | 0.00 | 0.05 | 0.05 | 95 | 1031.4 |
| 20260508112403 | 10 | 0 | 0.0 | 1.6 | 0.00 | 0.05 | 0.05 | 95 | 1031.3 |
| 20260508111503 | 10 | 0 | 0.0 | 6.4 | 0.00 | 0.05 | 0.05 | 95 | 1031.3 |
| 20260508110603 | 10 | 0 | 0.0 | 6.4 | 0.00 | 0.05 | 0.05 | 94 | 1031.2 |
| 20260508105703 | 10 | 0 | 0.0 | 6.4 | 0.00 | 0.05 | 0.05 | 94 | 1031.1 |
| 20260508104803 | 10 | 0 | 0.0 | 1.6 | 0.00 | 0.05 | 0.05 | 94 | 1031.1 |
| 20260508103903 | 10 | 0 | 0.0 | 4.8 | 0.00 | 0.05 | 0.05 | 94 | 1031.1 |
| 20260508103003 | 10 | 0 | 0.0 | 4.8 | 0.00 | 0.05 | 0.05 | 94 | 1031.2 |
| 20260508102425 | 10 | 223 | 1.6 | 8.0 | 0.00 | 0.05 | 0.05 | 93 | 1031.2 |
| 20260508101503 | 10 | 216 | 1.6 | 8.0 | 0.00 | 0.05 | 0.05 | 93 | 1031.2 |
| 20260508100624 | 10 | 224 | 1.6 | 6.4 | 0.00 | 0.05 | 0.05 | 93 | 1031.2 |
| 20260508095703 | 10 | 0 | 0.0 | 4.8 | 0.00 | 0.05 | 0.05 | 92 | 1031.2 |
| 20260508094803 | 10 | 0 | 0.0 | 8.0 | 0.00 | 0.05 | 0.05 | 92 | 1031.3 |
| 20260508093903 | 10 | 0 | 0.0 | 4.8 | 0.00 | 0.05 | 0.05 | 92 | 1031.2 |
| 20260508093024 | 10 | 0 | 0.0 | 4.8 | 0.00 | 0.05 | 0.05 | 91 | 1031.2 |
| 20260508092403 | 10 | 0 | 0.0 | 0.0 | 0.00 | 0.05 | 0.05 | 91 | 1031.2 |
| 20260508091524 | 10 | 0 | 0.0 | 4.8 | 0.00 | 0.05 | 0.05 | 90 | 1031.2 |
| 20260508090603 | 10 | 0 | 0.0 | 3.2 | 0.00 | 0.05 | 0.05 | 90 | 1031.1 |
| 20260508085703 | 10 | 0 | 0.0 | 6.4 | 0.00 | 0.05 | 0.05 | 90 | 1031.1 |
| 20260508084803 | 11 | 0 | 0.0 | 6.4 | 0.00 | 0.05 | 0.05 | 89 | 1031.1 |
| 20260508083903 | 11 | 0 | 0.0 | 4.8 | 0.00 | 0.05 | 0.05 | 89 | 1031.0 |
| 20260508083003 | 11 | 219 | 1.6 | 9.7 | 0.00 | 0.05 | 0.05 | 89 | 1031.1 |
| 20260508082403 | 11 | 0 | 0.0 | 6.4 | 0.00 | 0.05 | 0.05 | 89 | 1031.1 |
| 20260508081504 | 11 | 0 | 0.0 | 9.7 | 0.00 | 0.05 | 0.05 | 90 | 1030.9 |
| 20260508080604 | 11 | 0 | 0.0 | 6.4 | 0.00 | 0.05 | 0.05 | 91 | 1030.8 |
| 20260508075704 | 11 | 0 | 0.0 | 4.8 | 0.00 | 0.05 | 0.05 | 91 | 1030.8 |
| 20260508074803 | 11 | 0 | 0.0 | 4.8 | 0.00 | 0.05 | 0.05 | 91 | 1030.7 |
| 20260508073904 | 11 | 0 | 0.0 | 6.4 | 0.00 | 0.05 | 0.05 | 91 | 1030.7 |
| 20260508073004 | 11 | 234 | 1.6 | 6.4 | 0.00 | 0.05 | 0.05 | 90 | 1030.6 |
| 20260508072404 | 12 | 237 | 1.6 | 9.7 | 0.00 | 0.05 | 0.05 | 90 | 1030.6 |
| 20260508071524 | 12 | 227 | 1.6 | 9.7 | 0.00 | 0.05 | 0.05 | 89 | 1030.6 |
| 20260508070603 | 12 | 223 | 1.6 | 4.8 | 0.00 | 0.05 | 0.05 | 90 | 1030.6 |
| 20260508065703 | 12 | 229 | 1.6 | 8.0 | 0.00 | 0.05 | 0.05 | 89 | 1030.7 |
| 20260508064803 | 12 | 238 | 1.6 | 8.0 | 0.00 | 0.05 | 0.05 | 89 | 1030.7 |
| 20260508063903 | 12 | 233 | 1.6 | 6.4 | 0.00 | 0.05 | 0.05 | 89 | 1030.6 |
| 20260508063004 | 12 | 222 | 1.6 | 8.0 | 0.00 | 0.05 | 0.05 | 89 | 1030.7 |
| 20260508062424 | 12 | 218 | 1.6 | 8.0 | 0.00 | 0.05 | 0.05 | 89 | 1030.7 |
| 20260508061525 | 12 | 234 | 1.6 | 6.4 | 0.00 | 0.05 | 0.05 | 90 | 1030.6 |
| 20260508060603 | 12 | 222 | 3.2 | 6.4 | 0.00 | 0.05 | 0.05 | 89 | 1030.5 |
| 20260508055703 | 12 | 225 | 3.2 | 11.3 | 0.00 | 0.05 | 0.05 | 88 | 1030.5 |
| 20260508054803 | 13 | 221 | 1.6 | 12.9 | 0.00 | 0.05 | 0.05 | 87 | 1030.5 |
| 20260508053903 | 13 | 229 | 1.6 | 9.7 | 0.00 | 0.05 | 0.05 | 87 | 1030.5 |
| 20260508053024 | 13 | 0 | 0.0 | 6.4 | 0.00 | 0.05 | 0.05 | 87 | 1030.5 |
| 20260508052403 | 13 | 230 | 1.6 | 6.4 | 0.00 | 0.05 | 0.05 | 87 | 1030.6 |
| 20260508051504 | 13 | 223 | 1.6 | 6.4 | 0.00 | 0.05 | 0.05 | 88 | 1030.6 |
| 20260508050603 | 13 | 229 | 1.6 | 6.4 | 0.00 | 0.05 | 0.05 | 87 | 1030.6 |
| 20260508045703 | 13 | 222 | 3.2 | 9.7 | 0.00 | 0.05 | 0.05 | 86 | 1030.5 |
| 20260508044803 | 13 | 217 | 3.2 | 11.3 | 0.00 | 0.05 | 0.05 | 86 | 1030.6 |
| 20260508043924 | 13 | 0 | 0.0 | 11.3 | 0.00 | 0.05 | 0.05 | 86 | 1030.6 |
| 20260508043004 | 13 | 210 | 1.6 | 8.0 | 0.00 | 0.05 | 0.05 | 86 | 1030.7 |
| 20260508042403 | 13 | 209 | 1.6 | 8.0 | 0.00 | 0.05 | 0.05 | 86 | 1030.7 |
| 20260508041524 | 12 | 225 | 1.6 | 8.0 | 0.03 | 0.05 | 0.05 | 90 | 1030.9 |
| 20260508040624 | 12 | 0 | 0.0 | 8.0 | 0.03 | 0.05 | 0.05 | 91 | 1031.0 |
| 20260508035703 | 12 | 216 | 1.6 | 11.3 | 0.03 | 0.05 | 0.05 | 91 | 1031.1 |
| 20260508034803 | 12 | 218 | 3.2 | 9.7 | 0.03 | 0.05 | 0.05 | 91 | 1031.2 |
| 20260508033924 | 12 | 223 | 1.6 | 6.4 | 0.03 | 0.05 | 0.05 | 93 | 1031.2 |
| 20260508033003 | 12 | 233 | 1.6 | 8.0 | 0.03 | 0.05 | 0.05 | 93 | 1031.4 |
| 20260508032403 | 12 | 226 | 1.6 | 8.0 | 0.03 | 0.05 | 0.05 | 92 | 1031.4 |
| 20260508031503 | 12 | 229 | 1.6 | 8.0 | 0.00 | 0.05 | 0.05 | 92 | 1031.4 |
| 20260508030603 | 12 | 221 | 1.6 | 8.0 | 0.03 | 0.05 | 0.05 | 92 | 1031.5 |
| 20260508025703 | 12 | 224 | 1.6 | 12.9 | 0.03 | 0.05 | 0.05 | 93 | 1031.7 |
| 20260508024804 | 12 | 213 | 1.6 | 9.7 | 0.03 | 0.05 | 0.05 | 92 | 1031.7 |
| 20260508023924 | 12 | 0 | 0.0 | 4.8 | 0.03 | 0.05 | 0.05 | 93 | 1031.7 |
| 20260508023003 | 12 | 215 | 3.2 | 9.7 | 0.03 | 0.05 | 0.05 | 93 | 1031.9 |
| 20260508022403 | 12 | 220 | 3.2 | 9.7 | 0.03 | 0.05 | 0.05 | 93 | 1032.0 |
| 20260508021503 | 12 | 210 | 3.2 | 12.9 | 0.03 | 0.05 | 0.05 | 92 | 1032.1 |
| 20260508020603 | 12 | 227 | 1.6 | 8.0 | 0.00 | 0.03 | 0.03 | 92 | 1032.2 |
| 20260508015703 | 12 | 226 | 1.6 | 12.9 | 0.00 | 0.03 | 0.03 | 92 | 1032.4 |
| 20260508014803 | 12 | 216 | 1.6 | 9.7 | 0.00 | 0.03 | 0.03 | 92 | 1032.6 |
| 20260508013903 | 12 | 205 | 3.2 | 14.5 | 0.00 | 0.03 | 0.03 | 93 | 1032.6 |